Saint Bonnet de Bellac- Haute Vienne - France
Donnes mto: dimanche, 25/03/2012
Date Horaire Temp. E. Hum. E. P.atmo. Pluie Vent Direction Direction Ensoleilleme Solaire P. de rose Temp au vent Rafales
25/03/2012 00:00 10,2 C 62 % 1023,7 hPa 0,0 mm 0,0 km/h (0 Bft) E 90 0 min 0 W/m 3,3 C 10,2 C 0,0 km/h (0 Bft)
25/03/2012 00:10 9,9 C 62 % 1023,8 hPa 0,0 mm 1,4 km/h (1 Bft) E 90 0 min 0 W/m 3,0 C 9,9 C 2,9 km/h (1 Bft)
25/03/2012 00:20 9,8 C 63 % 1023,8 hPa 0,0 mm 0,0 km/h (0 Bft) E 90 0 min 0 W/m 3,1 C 9,8 C 0,0 km/h (0 Bft)
25/03/2012 00:30 9,8 C 64 % 1023,9 hPa 0,0 mm 1,1 km/h (1 Bft) E 90 0 min 0 W/m 3,3 C 9,8 C 1,1 km/h (1 Bft)
25/03/2012 00:40 9,5 C 64 % 1023,8 hPa 0,0 mm 0,0 km/h (0 Bft) E 90 0 min 0 W/m 3,0 C 9,5 C 0,0 km/h (0 Bft)
25/03/2012 00:50 9,2 C 65 % 1023,9 hPa 0,0 mm 0,0 km/h (0 Bft) E 90 0 min 0 W/m 3,0 C 9,2 C 0,0 km/h (0 Bft)
25/03/2012 01:00 8,8 C 66 % 1024,0 hPa 0,0 mm 0,0 km/h (0 Bft) E 90 0 min 0 W/m 2,8 C 8,8 C 0,0 km/h (0 Bft)
25/03/2012 01:10 8,5 C 67 % 1024,0 hPa 0,0 mm 0,0 km/h (0 Bft) E 90 0 min 0 W/m 2,7 C 8,5 C 0,0 km/h (0 Bft)
25/03/2012 01:20 8,3 C 67 % 1024,1 hPa 0,0 mm 0,0 km/h (0 Bft) E-SE 112 0 min 0 W/m 2,5 C 8,3 C 0,0 km/h (0 Bft)
25/03/2012 01:30 8,2 C 68 % 1024,1 hPa 0,0 mm 0,0 km/h (0 Bft) E-SE 112 0 min 0 W/m 2,7 C 8,2 C 0,0 km/h (0 Bft)
25/03/2012 01:40 8,1 C 68 % 1024,1 hPa 0,0 mm 0,4 km/h (0 Bft) E-SE 112 0 min 0 W/m 2,6 C 8,1 C 0,4 km/h (0 Bft)
25/03/2012 01:50 7,9 C 69 % 1024,1 hPa 0,0 mm 0,0 km/h (0 Bft) E-SE 112 0 min 0 W/m 2,6 C 7,9 C 0,0 km/h (0 Bft)
25/03/2012 03:02 7,8 C 69 % 1024,2 hPa 0,0 mm 0,4 km/h (0 Bft) E-SE 112 0 min 0 W/m 2,5 C 7,8 C 3,6 km/h (1 Bft)
25/03/2012 03:10 7,5 C 70 % 1024,1 hPa 0,0 mm 0,0 km/h (0 Bft) E-SE 112 0 min 0 W/m 2,4 C 7,5 C 0,0 km/h (0 Bft)
25/03/2012 03:20 7,4 C 72 % 1024,1 hPa 0,0 mm 0,0 km/h (0 Bft) E-SE 112 0 min 0 W/m 2,7 C 7,4 C 0,0 km/h (0 Bft)
25/03/2012 03:30 7,2 C 72 % 1024,0 hPa 0,0 mm 2,2 km/h (1 Bft) E-SE 112 0 min 0 W/m 2,5 C 7,2 C 4,0 km/h (1 Bft)
25/03/2012 03:40 7,1 C 72 % 1024,0 hPa 0,0 mm 0,0 km/h (0 Bft) E-NE 67 0 min 0 W/m 2,4 C 7,1 C 0,0 km/h (0 Bft)
25/03/2012 03:50 6,9 C 72 % 1024,0 hPa 0,0 mm 0,0 km/h (0 Bft) E 90 0 min 0 W/m 2,2 C 6,9 C 0,0 km/h (0 Bft)
25/03/2012 04:00 6,8 C 73 % 1024,0 hPa 0,0 mm 0,0 km/h (0 Bft) E-SE 112 0 min 0 W/m 2,3 C 6,8 C 0,0 km/h (0 Bft)
25/03/2012 04:10 6,6 C 74 % 1023,9 hPa 0,0 mm 0,0 km/h (0 Bft) E-SE 112 0 min 0 W/m 2,3 C 6,6 C 0,0 km/h (0 Bft)
25/03/2012 04:20 6,6 C 74 % 1024,0 hPa 0,0 mm 0,4 km/h (0 Bft) E-SE 112 0 min 0 W/m 2,3 C 6,6 C 0,4 km/h (0 Bft)
25/03/2012 04:30 6,6 C 74 % 1024,0 hPa 0,0 mm 0,4 km/h (0 Bft) S-SE 157 0 min 0 W/m 2,3 C 6,6 C 3,2 km/h (1 Bft)
25/03/2012 04:40 6,6 C 74 % 1024,0 hPa 0,0 mm 1,1 km/h (1 Bft) E 90 0 min 0 W/m 2,3 C 6,6 C 1,1 km/h (1 Bft)
25/03/2012 04:50 6,6 C 75 % 1024,0 hPa 0,0 mm 0,0 km/h (0 Bft) E 90 0 min 0 W/m 2,5 C 6,6 C 0,0 km/h (0 Bft)
25/03/2012 05:00 6,3 C 75 % 1023,9 hPa 0,0 mm 0,0 km/h (0 Bft) E 90 0 min 0 W/m 2,2 C 6,3 C 0,0 km/h (0 Bft)
25/03/2012 05:10 6,1 C 75 % 1024,0 hPa 0,0 mm 0,0 km/h (0 Bft) E 90 0 min 0 W/m 2,0 C 6,1 C 0,0 km/h (0 Bft)
25/03/2012 05:20 5,8 C 75 % 1024,0 hPa 0,0 mm 0,0 km/h (0 Bft) E 90 0 min 0 W/m 1,7 C 5,8 C 0,0 km/h (0 Bft)
25/03/2012 05:30 5,3 C 75 % 1023,9 hPa 0,0 mm 0,0 km/h (0 Bft) E 90 0 min 0 W/m 1,2 C 5,3 C 0,0 km/h (0 Bft)
25/03/2012 05:40 4,9 C 76 % 1024,0 hPa 0,0 mm 0,0 km/h (0 Bft) E 90 0 min 0 W/m 1,0 C 4,9 C 0,0 km/h (0 Bft)
25/03/2012 05:50 4,8 C 77 % 1024,1 hPa 0,0 mm 0,0 km/h (0 Bft) E 90 0 min 0 W/m 1,1 C 4,8 C 0,0 km/h (0 Bft)
25/03/2012 06:00 4,6 C 78 % 1024,1 hPa 0,0 mm 0,0 km/h (0 Bft) E 90 0 min 0 W/m 1,1 C 4,6 C 0,0 km/h (0 Bft)
25/03/2012 06:10 4,6 C 79 % 1024,2 hPa 0,0 mm 0,0 km/h (0 Bft) E 90 0 min 0 W/m 1,3 C 4,6 C 0,0 km/h (0 Bft)
25/03/2012 06:20 4,5 C 79 % 1024,3 hPa 0,0 mm 0,0 km/h (0 Bft) E 90 0 min 0 W/m 1,2 C 4,5 C 0,0 km/h (0 Bft)
25/03/2012 06:30 4,5 C 79 % 1024,4 hPa 0,0 mm 0,0 km/h (0 Bft) E 90 0 min 0 W/m 1,2 C 4,5 C 0,0 km/h (0 Bft)
25/03/2012 06:40 4,6 C 79 % 1024,4 hPa 0,0 mm 0,0 km/h (0 Bft) E 90 0 min 0 W/m 1,3 C 4,6 C 0,0 km/h (0 Bft)
25/03/2012 06:50 4,5 C 80 % 1024,5 hPa 0,0 mm 0,0 km/h (0 Bft) E 90 0 min 0 W/m 1,4 C 4,5 C 0,0 km/h (0 Bft)
25/03/2012 07:00 4,3 C 79 % 1024,6 hPa 0,0 mm 0,0 km/h (0 Bft) E 90 0 min 0 W/m 1,0 C 4,3 C 0,0 km/h (0 Bft)
25/03/2012 07:10 3,9 C 79 % 1024,6 hPa 0,0 mm 0,0 km/h (0 Bft) E 90 0 min 0 W/m 0,6 C 3,9 C 0,0 km/h (0 Bft)
25/03/2012 07:20 3,7 C 80 % 1024,5 hPa 0,0 mm 0,0 km/h (0 Bft) E 90 0 min 0 W/m 0,6 C 3,7 C 0,0 km/h (0 Bft)
25/03/2012 07:30 3,4 C 81 % 1024,7 hPa 0,0 mm 0,0 km/h (0 Bft) E 90 0 min 0 W/m 0,5 C 3,4 C 0,0 km/h (0 Bft)
25/03/2012 07:40 3,3 C 81 % 1024,8 hPa 0,0 mm 0,0 km/h (0 Bft) E 90 0 min 0 W/m 0,4 C 3,3 C 0,0 km/h (0 Bft)
25/03/2012 07:50 3,3 C 81 % 1024,8 hPa 0,0 mm 0,0 km/h (0 Bft) NE 45 0 min 0 W/m 0,4 C 3,3 C 0,0 km/h (0 Bft)
25/03/2012 08:00 3,2 C 81 % 1024,8 hPa 0,0 mm 0,0 km/h (0 Bft) NE 45 2 min 0 W/m 0,3 C 3,2 C 0,0 km/h (0 Bft)
25/03/2012 08:10 3,3 C 82 % 1024,9 hPa 0,0 mm 0,0 km/h (0 Bft) E-NE 67 2 min 0 W/m 0,5 C 3,3 C 0,0 km/h (0 Bft)
25/03/2012 08:20 3,4 C 82 % 1024,9 hPa 0,0 mm 0,0 km/h (0 Bft) E-NE 67 2 min 0 W/m 0,6 C 3,4 C 0,0 km/h (0 Bft)
25/03/2012 08:30 3,4 C 83 % 1025,0 hPa 0,0 mm 0,0 km/h (0 Bft) E-NE 67 2 min 0 W/m 0,8 C 3,4 C 0,0 km/h (0 Bft)
25/03/2012 08:40 3,5 C 83 % 1025,0 hPa 0,0 mm 0,0 km/h (0 Bft) E-NE 67 2 min 0 W/m 0,9 C 3,5 C 0,0 km/h (0 Bft)
25/03/2012 08:50 3,6 C 84 % 1025,1 hPa 0,0 mm 0,0 km/h (0 Bft) E-NE 67 2 min 0 W/m 1,2 C 3,6 C 0,0 km/h (0 Bft)
25/03/2012 09:00 4,1 C 84 % 1025,2 hPa 0,0 mm 0,4 km/h (0 Bft) E 90 2 min 0 W/m 1,6 C 4,1 C 4,0 km/h (1 Bft)
25/03/2012 09:10 5,2 C 84 % 1025,3 hPa 0,0 mm 2,5 km/h (1 Bft) NE 45 2 min 0 W/m 2,7 C 5,2 C 3,2 km/h (1 Bft)
25/03/2012 09:20 6,2 C 83 % 1025,4 hPa 0,0 mm 0,0 km/h (0 Bft) E-SE 112 2 min 0 W/m 3,5 C 6,2 C 0,0 km/h (0 Bft)
25/03/2012 09:30 6,9 C 81 % 1025,4 hPa 0,0 mm 0,0 km/h (0 Bft) E-SE 112 2 min 0 W/m 3,9 C 6,9 C 0,0 km/h (0 Bft)
25/03/2012 09:40 7,8 C 80 % 1025,4 hPa 0,0 mm 0,0 km/h (0 Bft) E-SE 112 2 min 0 W/m 4,6 C 7,8 C 0,0 km/h (0 Bft)
25/03/2012 09:50 8,4 C 77 % 1025,4 hPa 0,0 mm 0,0 km/h (0 Bft) E-SE 112 2 min 0 W/m 4,6 C 8,4 C 0,0 km/h (0 Bft)
25/03/2012 10:00 9,2 C 76 % 1025,8 hPa 0,0 mm 0,0 km/h (0 Bft) E 90 2 min 0 W/m 5,2 C 9,2 C 0,0 km/h (0 Bft)
25/03/2012 10:10 10,0 C 75 % 1025,9 hPa 0,0 mm 0,0 km/h (0 Bft) E 90 2 min 0 W/m 5,8 C 10,0 C 0,0 km/h (0 Bft)
25/03/2012 10:20 11,1 C 73 % 1025,9 hPa 0,0 mm 0,0 km/h (0 Bft) E-SE 112 2 min 0 W/m 6,4 C 11,1 C 0,0 km/h (0 Bft)
25/03/2012 10:30 12,1 C 72 % 1025,9 hPa 0,0 mm 0,0 km/h (0 Bft) E 90 2 min 0 W/m 7,2 C 12,1 C 0,0 km/h (0 Bft)
25/03/2012 10:40 12,9 C 69 % 1026,0 hPa 0,0 mm 0,0 km/h (0 Bft) E 90 2 min 0 W/m 7,4 C 12,9 C 0,0 km/h (0 Bft)
25/03/2012 10:50 13,8 C 67 % 1026,1 hPa 0,0 mm 0,0 km/h (0 Bft) E 90 2 min 0 W/m 7,8 C 13,8 C 0,0 km/h (0 Bft)
25/03/2012 11:00 14,8 C 66 % 1026,2 hPa 0,0 mm 0,0 km/h (0 Bft) E-SE 112 2 min 0 W/m 8,5 C 14,8 C 0,0 km/h (0 Bft)
25/03/2012 11:10 15,8 C 63 % 1026,3 hPa 0,0 mm 0,0 km/h (0 Bft) E 90 2 min 0 W/m 8,8 C 15,8 C 2,9 km/h (1 Bft)
25/03/2012 11:20 16,8 C 61 % 1026,4 hPa 0,0 mm 4,0 km/h (1 Bft) E-NE 67 2 min 0 W/m 9,2 C 16,8 C 4,0 km/h (1 Bft)
25/03/2012 11:30 17,6 C 60 % 1026,5 hPa 0,0 mm 2,9 km/h (1 Bft) E-NE 67 2 min 0 W/m 9,7 C 17,6 C 4,0 km/h (1 Bft)
25/03/2012 11:40 18,2 C 59 % 1026,5 hPa 0,0 mm 2,9 km/h (1 Bft) N 360 2 min 0 W/m 10,1 C 18,2 C 4,3 km/h (1 Bft)
25/03/2012 11:50 19,1 C 57 % 1026,6 hPa 0,0 mm 0,7 km/h (0 Bft) N-NE 22 2 min 0 W/m 10,4 C 19,1 C 4,0 km/h (1 Bft)
25/03/2012 12:00 19,7 C 54 % 1026,5 hPa 0,0 mm 8,3 km/h (2 Bft) N-NE 22 2 min 0 W/m 10,1 C 19,7 C 10,8 km/h (2 Bft)
25/03/2012 12:10 20,1 C 53 % 1026,5 hPa 0,0 mm 9,7 km/h (2 Bft) N-NE 22 2 min 0 W/m 10,2 C 20,1 C 15,8 km/h (3 Bft)
25/03/2012 12:20 20,4 C 50 % 1026,6 hPa 0,0 mm 7,9 km/h (2 Bft) NE 45 2 min 0 W/m 9,6 C 20,4 C 12,2 km/h (2 Bft)
25/03/2012 12:30 20,8 C 47 % 1026,5 hPa 0,0 mm 3,6 km/h (1 Bft) N-NE 22 2 min 0 W/m 9,1 C 20,8 C 8,6 km/h (2 Bft)
25/03/2012 12:40 21,1 C 46 % 1026,4 hPa 0,0 mm 5,0 km/h (1 Bft) N-NE 22 2 min 0 W/m 9,0 C 21,1 C 6,1 km/h (2 Bft)
25/03/2012 12:50 21,2 C 45 % 1026,2 hPa 0,0 mm 10,1 km/h (2 Bft) N-NE 22 2 min 0 W/m 8,8 C 21,2 C 10,8 km/h (2 Bft)
25/03/2012 13:00 21,3 C 44 % 1026,2 hPa 0,0 mm 10,8 km/h (2 Bft) NE 45 2 min 0 W/m 8,5 C 21,3 C 13,0 km/h (3 Bft)
25/03/2012 13:10 21,4 C 44 % 1026,1 hPa 0,0 mm 11,5 km/h (2 Bft) E-NE 67 2 min 0 W/m 8,6 C 21,4 C 11,5 km/h (2 Bft)
25/03/2012 13:20 21,6 C 43 % 1026,0 hPa 0,0 mm 8,3 km/h (2 Bft) E-NE 67 2 min 0 W/m 8,5 C 21,6 C 10,8 km/h (2 Bft)
25/03/2012 13:30 21,9 C 45 % 1026,0 hPa 0,0 mm 1,8 km/h (1 Bft) N-NE 22 2 min 0 W/m 9,4 C 21,9 C 4,3 km/h (1 Bft)
25/03/2012 13:40 22,2 C 42 % 1026,1 hPa 0,0 mm 8,6 km/h (2 Bft) NE 45 2 min 0 W/m 8,7 C 22,2 C 14,4 km/h (3 Bft)
25/03/2012 13:50 22,1 C 41 % 1025,9 hPa 0,0 mm 10,1 km/h (2 Bft) N-NE 22 2 min 0 W/m 8,2 C 22,1 C 10,8 km/h (2 Bft)
25/03/2012 14:00 21,8 C 41 % 1025,9 hPa 0,0 mm 9,0 km/h (2 Bft) E-NE 67 2 min 0 W/m 8,0 C 21,8 C 10,4 km/h (2 Bft)
25/03/2012 14:10 21,9 C 42 % 1025,7 hPa 0,0 mm 8,6 km/h (2 Bft) E-NE 67 2 min 0 W/m 8,4 C 21,9 C 11,9 km/h (2 Bft)
25/03/2012 14:20 21,9 C 42 % 1025,8 hPa 0,0 mm 7,2 km/h (2 Bft) N-NE 22 2 min 0 W/m 8,4 C 21,9 C 14,0 km/h (3 Bft)
25/03/2012 14:30 21,8 C 42 % 1025,7 hPa 0,0 mm 6,5 km/h (2 Bft) N-NE 22 2 min 0 W/m 8,3 C 21,8 C 16,2 km/h (3 Bft)
25/03/2012 14:40 21,9 C 42 % 1025,7 hPa 0,0 mm 9,0 km/h (2 Bft) N 360 2 min 0 W/m 8,4 C 21,9 C 10,4 km/h (2 Bft)
25/03/2012 14:50 22,0 C 43 % 1025,8 hPa 0,0 mm 5,0 km/h (1 Bft) E-NE 67 2 min 0 W/m 8,8 C 22,0 C 9,7 km/h (2 Bft)
25/03/2012 15:00 22,0 C 44 % 1025,3 hPa 0,0 mm 8,3 km/h (2 Bft) NE 45 2 min 0 W/m 9,2 C 22,0 C 12,2 km/h (2 Bft)
25/03/2012 15:10 21,9 C 42 % 1025,3 hPa 0,0 mm 9,0 km/h (2 Bft) E-NE 67 2 min 0 W/m 8,4 C 21,9 C 10,1 km/h (2 Bft)
25/03/2012 15:20 21,8 C 41 % 1025,3 hPa 0,0 mm 10,1 km/h (2 Bft) N-NE 22 2 min 0 W/m 8,0 C 21,8 C 18,0 km/h (3 Bft)
25/03/2012 15:30 21,8 C 42 % 1025,2 hPa 0,0 mm 12,2 km/h (2 Bft) NE 45 2 min 0 W/m 8,3 C 21,8 C 18,4 km/h (3 Bft)
25/03/2012 15:40 21,7 C 42 % 1025,1 hPa 0,0 mm 11,5 km/h (2 Bft) N-NE 22 2 min 0 W/m 8,2 C 21,7 C 18,7 km/h (3 Bft)
25/03/2012 15:50 21,5 C 42 % 1025,1 hPa 0,0 mm 10,4 km/h (2 Bft) N-NE 22 2 min 0 W/m 8,0 C 21,5 C 10,8 km/h (2 Bft)
25/03/2012 16:00 21,4 C 42 % 1025,1 hPa 0,0 mm 9,7 km/h (2 Bft) N-NE 22 2 min 0 W/m 8,0 C 21,4 C 15,1 km/h (3 Bft)
25/03/2012 16:10 21,3 C 42 % 1025,0 hPa 0,0 mm 7,6 km/h (2 Bft) NE 45 2 min 0 W/m 7,9 C 21,3 C 14,0 km/h (3 Bft)
25/03/2012 16:20 21,3 C 42 % 1024,9 hPa 0,0 mm 9,4 km/h (2 Bft) N-NE 22 2 min 0 W/m 7,9 C 21,3 C 12,6 km/h (3 Bft)
25/03/2012 16:30 21,2 C 42 % 1025,1 hPa 0,0 mm 10,8 km/h (2 Bft) N-NE 22 2 min 0 W/m 7,8 C 21,2 C 16,9 km/h (3 Bft)
25/03/2012 16:40 21,2 C 43 % 1025,0 hPa 0,0 mm 7,6 km/h (2 Bft) NE 45 2 min 0 W/m 8,1 C 21,2 C 7,6 km/h (2 Bft)
25/03/2012 16:50 21,1 C 42 % 1025,0 hPa 0,0 mm 10,8 km/h (2 Bft) NE 45 2 min 0 W/m 7,7 C 21,1 C 10,8 km/h (2 Bft)
25/03/2012 17:00 20,9 C 41 % 1024,9 hPa 0,0 mm 7,6 km/h (2 Bft) N-NE 22 2 min 0 W/m 7,2 C 20,9 C 11,9 km/h (2 Bft)
25/03/2012 17:10 20,8 C 41 % 1024,8 hPa 0,0 mm 7,2 km/h (2 Bft) N-NE 22 2 min 0 W/m 7,1 C 20,8 C 7,2 km/h (2 Bft)
25/03/2012 17:20 20,6 C 40 % 1024,8 hPa 0,0 mm 7,9 km/h (2 Bft) NE 45 2 min 0 W/m 6,5 C 20,6 C 8,6 km/h (2 Bft)
25/03/2012 17:30 20,6 C 41 % 1024,7 hPa 0,0 mm 8,3 km/h (2 Bft) N-NE 22 2 min 0 W/m 6,9 C 20,6 C 13,0 km/h (3 Bft)
25/03/2012 17:40 20,6 C 43 % 1024,8 hPa 0,0 mm 8,3 km/h (2 Bft) NE 45 2 min 0 W/m 7,6 C 20,6 C 13,0 km/h (3 Bft)
25/03/2012 17:50 20,6 C 44 % 1024,7 hPa 0,0 mm 5,4 km/h (2 Bft) N-NE 22 2 min 0 W/m 7,9 C 20,6 C 8,6 km/h (2 Bft)
25/03/2012 18:00 20,5 C 44 % 1024,7 hPa 0,0 mm 6,5 km/h (2 Bft) N-NE 22 2 min 0 W/m 7,8 C 20,5 C 8,3 km/h (2 Bft)
25/03/2012 18:10 20,5 C 43 % 1024,6 hPa 0,0 mm 6,1 km/h (2 Bft) E-NE 67 2 min 0 W/m 7,5 C 20,5 C 10,4 km/h (2 Bft)
25/03/2012 18:20 20,3 C 44 % 1024,6 hPa 0,0 mm 5,4 km/h (2 Bft) NE 45 2 min 0 W/m 7,6 C 20,3 C 7,9 km/h (2 Bft)
25/03/2012 18:30 20,1 C 44 % 1024,6 hPa 0,0 mm 9,4 km/h (2 Bft) N-NE 22 2 min 0 W/m 7,5 C 20,1 C 17,3 km/h (3 Bft)
25/03/2012 18:40 19,9 C 41 % 1024,5 hPa 0,0 mm 7,2 km/h (2 Bft) N-NE 22 2 min 0 W/m 6,3 C 19,9 C 11,9 km/h (2 Bft)
25/03/2012 18:50 19,6 C 39 % 1024,6 hPa 0,0 mm 5,4 km/h (2 Bft) E-NE 67 2 min 0 W/m 5,3 C 19,6 C 7,9 km/h (2 Bft)
25/03/2012 19:00 19,4 C 39 % 1024,7 hPa 0,0 mm 8,3 km/h (2 Bft) E-NE 67 2 min 0 W/m 5,1 C 19,4 C 13,0 km/h (3 Bft)
25/03/2012 19:10 19,2 C 40 % 1024,7 hPa 0,0 mm 6,1 km/h (2 Bft) N-NE 22 2 min 0 W/m 5,3 C 19,2 C 10,1 km/h (2 Bft)
25/03/2012 19:20 19,1 C 41 % 1024,8 hPa 0,0 mm 4,3 km/h (1 Bft) NE 45 2 min 0 W/m 5,5 C 19,1 C 7,6 km/h (2 Bft)
25/03/2012 19:30 18,8 C 42 % 1024,9 hPa 0,0 mm 4,3 km/h (1 Bft) N-NE 22 2 min 0 W/m 5,6 C 18,8 C 7,6 km/h (2 Bft)
25/03/2012 19:40 18,4 C 42 % 1025,0 hPa 0,0 mm 9,7 km/h (2 Bft) N-NE 22 2 min 0 W/m 5,3 C 18,4 C 18,0 km/h (3 Bft)
25/03/2012 19:50 18,1 C 44 % 1024,9 hPa 0,0 mm 4,3 km/h (1 Bft) NE 45 2 min 0 W/m 5,7 C 18,1 C 6,1 km/h (2 Bft)
25/03/2012 20:00 17,7 C 45 % 1024,9 hPa 0,0 mm 4,3 km/h (1 Bft) E-NE 67 2 min 0 W/m 5,6 C 17,7 C 5,8 km/h (2 Bft)
25/03/2012 20:10 17,2 C 45 % 1024,9 hPa 0,0 mm 3,2 km/h (1 Bft) N-NE 22 0 min 0 W/m 5,2 C 17,2 C 3,6 km/h (1 Bft)
25/03/2012 20:20 16,8 C 46 % 1024,9 hPa 0,0 mm 1,8 km/h (1 Bft) N-NE 22 0 min 0 W/m 5,1 C 16,8 C 4,0 km/h (1 Bft)
25/03/2012 20:30 16,4 C 45 % 1025,0 hPa 0,0 mm 1,8 km/h (1 Bft) NE 45 0 min 0 W/m 4,4 C 16,4 C 4,3 km/h (1 Bft)
25/03/2012 20:40 16,1 C 46 % 1025,2 hPa 0,0 mm 2,5 km/h (1 Bft) N-NE 22 0 min 0 W/m 4,5 C 16,1 C 4,0 km/h (1 Bft)
25/03/2012 20:50 15,8 C 47 % 1025,3 hPa 0,0 mm 0,0 km/h (0 Bft) N-NE 22 0 min 0 W/m 4,5 C 15,8 C 0,0 km/h (0 Bft)
25/03/2012 21:00 15,4 C 47 % 1025,4 hPa 0,0 mm 0,0 km/h (0 Bft) N-NE 22 0 min 0 W/m 4,1 C 15,4 C 0,0 km/h (0 Bft)
25/03/2012 21:10 14,8 C 49 % 1025,4 hPa 0,0 mm 0,0 km/h (0 Bft) N-NE 22 0 min 0 W/m 4,2 C 14,8 C 0,0 km/h (0 Bft)
25/03/2012 21:20 14,4 C 50 % 1025,3 hPa 0,0 mm 0,0 km/h (0 Bft) NE 45 0 min 0 W/m 4,1 C 14,4 C 0,0 km/h (0 Bft)
25/03/2012 21:30 13,8 C 52 % 1025,3 hPa 0,0 mm 0,0 km/h (0 Bft) NE 45 0 min 0 W/m 4,1 C 13,8 C 0,0 km/h (0 Bft)
25/03/2012 21:40 13,4 C 52 % 1025,4 hPa 0,0 mm 0,0 km/h (0 Bft) N-NE 22 0 min 0 W/m 3,7 C 13,4 C 0,0 km/h (0 Bft)
25/03/2012 21:50 13,2 C 53 % 1025,5 hPa 0,0 mm 2,2 km/h (1 Bft) N-NE 22 0 min 0 W/m 3,8 C 13,2 C 4,3 km/h (1 Bft)
25/03/2012 22:00 13,2 C 53 % 1025,6 hPa 0,0 mm 0,0 km/h (0 Bft) N-NE 22 0 min 0 W/m 3,8 C 13,2 C 0,0 km/h (0 Bft)
25/03/2012 22:10 13,2 C 54 % 1025,6 hPa 0,0 mm 1,8 km/h (1 Bft) N-NE 22 0 min 0 W/m 4,1 C 13,2 C 4,3 km/h (1 Bft)
25/03/2012 22:20 13,2 C 54 % 1025,6 hPa 0,0 mm 1,4 km/h (1 Bft) NE 45 0 min 0 W/m 4,1 C 13,2 C 4,3 km/h (1 Bft)
25/03/2012 22:30 13,2 C 55 % 1025,7 hPa 0,0 mm 1,1 km/h (1 Bft) NE 45 0 min 0 W/m 4,4 C 13,2 C 3,2 km/h (1 Bft)
25/03/2012 22:40 13,1 C 55 % 1025,8 hPa 0,0 mm 1,4 km/h (1 Bft) N-NE 22 0 min 0 W/m 4,3 C 13,1 C 4,3 km/h (1 Bft)
25/03/2012 22:50 12,9 C 55 % 1025,8 hPa 0,0 mm 2,9 km/h (1 Bft) N-NE 22 0 min 0 W/m 4,1 C 12,9 C 5,0 km/h (1 Bft)
25/03/2012 23:00 12,9 C 56 % 1025,7 hPa 0,0 mm 2,9 km/h (1 Bft) N-NE 22 0 min 0 W/m 4,3 C 12,9 C 4,0 km/h (1 Bft)
25/03/2012 23:10 12,9 C 56 % 1025,8 hPa 0,0 mm 2,5 km/h (1 Bft) NE 45 0 min 0 W/m 4,3 C 12,9 C 4,3 km/h (1 Bft)
25/03/2012 23:20 12,9 C 56 % 1025,9 hPa 0,0 mm 0,0 km/h (0 Bft) NE 45 0 min 0 W/m 4,3 C 12,9 C 0,0 km/h (0 Bft)
25/03/2012 23:30 12,5 C 57 % 1026,0 hPa 0,0 mm 0,4 km/h (0 Bft) NE 45 0 min 0 W/m 4,2 C 12,5 C 3,6 km/h (1 Bft)
25/03/2012 23:40 12,2 C 58 % 1026,0 hPa 0,0 mm 0,0 km/h (0 Bft) E-NE 67 0 min 0 W/m 4,2 C 12,2 C 0,0 km/h (0 Bft)
25/03/2012 23:50 11,8 C 58 % 1026,0 hPa 0,0 mm 0,0 km/h (0 Bft) E-NE 67 0 min 0 W/m 3,8 C 11,8 C 0,0 km/h (0 Bft)
_ Min-Heure 08:00 19:00 00:00 - 23:50 - - - - 08:00 08:00 23:50
Minimum _ 3,2 C 39 % 1023,7 hPa - 0,0 km/h (0 Bft) - - - - 0,3 C 3,2 C 0,0 km/h (0 Bft)
_ Max-Heure 13:40 09:10 12:20 23:50 15:30 - - 20:00 23:50 11:50 13:40 15:40
Maximum _ 22,2 C 84 % 1026,6 hPa 0,0 mm 12,2 km/h
NE (2 Bft)
- - 2 min 0 W/m 10,4 C 22,2 C 18,7 km/h
N-NE (3 Bft)
Moyenne _ 13,2 C 59 % 1025,0 hPa #0,0 mm 3,0 km/h (1 Bft) N-NE - #2:26 h 0 W/m 4,9 C 13,2 C 4,7 km/h (1 Bft)
Saint Bonnet de Bellac- Haute Vienne - France